Regional Weather Roundup
Issued by NWS

Home | Current Version | Previous Version | Text Only | Print | Product List | Glossary Off
Versions: 1 2 3 4 5 6 7 8 9 10 11 12 13 14 15 16 17 18 19 20 21 22 23 24 25 26 27 28 29 30 31 32 33 34 35 36 37 38 39 40 41 42 43 44 45 46 47 48 49 50

000
ASUS43 KFSD 251910
RWRSD

WEATHER ROUNDUP FOR SOUTH DAKOTA
NATIONAL WEATHER SERVICE SIOUX FALLS SD
200 PM CDT TUE JUL 25 2017

NOTE: "FAIR" INDICATES FEW OR NO CLOUDS BELOW 12,000 FEET WITH NO
SIGNIFICANT WEATHER AND/OR OBSTRUCTIONS TO VISIBILITY.


SDZ001>005-009-010-012>017-252000-
NORTHWEST AND NORTH CENTRAL SOUTH DAKOTA

CITY           SKY/WX    TMP DP  RH WIND       PRES   REMARKS
BUFFALO          N/A     83  49  30 NE15G25   30.00R
FAITH            N/A     89  60  37 NE10      29.98R
MOBRIDGE       PTSUNNY   87  71  58 N8        29.91R
$$

SDZ012>016-024>037-041>051-057-063-072>074-252000-
SOUTHWEST AND SOUTH CENTRAL SOUTH DAKOTA

CITY           SKY/WX    TMP DP  RH WIND       PRES   REMARKS
RAPID CTY ARPT PTSUNNY   83  57  41 SE6       30.03R
PIERRE         CLOUDY    92  65  40 NE17G24   29.87S
CUSTER         CLOUDY    75  48  38 NE23G31   30.16F
ELLSWORTH AFB  CLOUDY    84  57  39 E5        30.03R
PHILIP         CLOUDY    93  63  36 NE15G24   29.92R
PINE RIDGE     MOSUNNY   93  60  33 N15       29.96R
SPEARFISH      FAIR      84  55  37 VRB5G14   30.10R
WINNER         FAIR     104  65  28 S13G18    29.84F HX 108
$$

SDZ004>011-016>023-039-040-252000-
NORTHEAST SOUTH DAKOTA

CITY           SKY/WX    TMP DP  RH WIND       PRES   REMARKS
ABERDEEN       MOSUNNY   83  71  67 E10       29.91R
WATERTOWN      MOSUNNY   85  71  63 SE8       29.90R
BROOKINGS      MOSUNNY   89  73  59 S7        29.90F HX  97
SISSETON         N/A     80  72  76 NE7       29.90R
$$

SDZ017-020-022-023-036>040-048>070-252000-
SOUTHEAST SOUTH DAKOTA

CITY           SKY/WX    TMP DP  RH WIND       PRES   REMARKS
SIOUX FALLS    MOSUNNY   93  72  50 SW23G31   29.89F HX 101
HURON          CLOUDY    91  70  49 NE7       29.85R HX  96
CHAMBERLAIN    SUNNY     98  68  37 S5        29.84F HX 103
MITCHELL       SUNNY     99  68  36 S10G22    29.83F HX 104
YANKTON        SUNNY     98  62  30 S21G31    29.89S HX  99
$$

ABBREVIATIONS USED IN REMARKS
   TC - TEMPERATURE IN CELSIUS
  WCI - WIND CHILL INDEX
   HX - HEAT INDEX
  VSB - VISIBILITY





USA.gov is the U.S. government's official web portal to all federal, state and local government web resources and services.